Regional Weather Roundup
Issued by NWS Midland/Odessa, TX

Skip options and go directly to product.
Home | Oldest Version | Previous Version | Current Version | All | Text Only | Save Text | Print | Product List | Glossary On

Skip product version selection by date and time.   
864
ASUS44 KMAF 120310
RWRMAF
MIDLAND AREA WEATHER ROUNDUP
NATIONAL WEATHER SERVICE MIDLAND TX
900 PM CST THU FEB 11 2016

...IN SOUTHWEST TEXAS AND SOUTHEAST NEW MEXICO...

CITY           SKY/WX    TMP DP  RH WIND       PRES   REMARKS
ALPINE         CLEAR     44  20  39 W6        30.32S
ANDREWS        FAIR      49  27  42 CALM      30.20S
ARTESIA        CLEAR     46  23  39 SW8       30.19S
BIG SPRING     CLEAR     50  26  39 NE3       30.19S
CARLSBAD       CLEAR     47  24  40 W13       30.18R
DRYDEN           N/A     63  19  18 VRB7      30.15R
FORT STOCKTON  CLEAR     54  25  32 SW6       30.19S
GUAD PASS      CLEAR     59   8  13 W12       30.30R
HOBBS          CLEAR     50  23  34 E3        30.21S
MARFA          CLEAR     43  12  28 N5        30.30R
MIDLAND AIRPK  CLEAR     57  27  31 CALM      30.19S
MIDLAND INTL   CLEAR     48  28  46 N6        30.18S
ODESSA         CLEAR     55  25  31 NE7       30.19S
PECOS          CLEAR     47  23  38 SW8       30.18R
PRESIDIO       FAIR      60  17  19 MISG      30.19R
SEMINOLE       CLEAR     49  27  41 CALM      30.21R
SNYDER           N/A     51  30  44 NE6       30.18S
WINK           CLEAR     53  24  32 E8        30.17R
$$
...OTHER STATIONS IN TEXAS...

CITY           SKY/WX    TMP DP  RH WIND       PRES   REMARKS
ABILENE        CLEAR     58  32  37 NE6       30.15R
AMARILLO       CLOUDY    48  24  39 S8        30.18S
AUSTIN         PTCLDY    56  37  49 S5        30.12R
BROWNSVILLE    CLEAR     63  60  90 S12       30.19S
CORPUS CHRISTI CLEAR     63  56  78 S14       30.18R
DALLAS FTW     PTCLDY    56  37  49 N6        30.11R
DEL RIO        PTCLDY    68  27  21 E3        30.10R
EL PASO        CLEAR     57  18  21 S8        30.23R
HOUSTON INT    CLEAR     65  52  62 S9        30.17R
LUBBOCK        CLOUDY    49  25  39 SE6       30.19S
SAN ANGELO     PTCLDY    56  23  27 SW5       30.13R
SAN ANTONIO    PTCLDY    61  38  42 NW3       30.14R
WACO           CLEAR     61  38  42 S6        30.08R
WICHITA FALLS  NOT AVBL
$$
...OTHER LOCATIONS IN NEW MEXICO...

CITY           SKY/WX    TMP DP  RH WIND       PRES   REMARKS
ALAMAGORDO     CLOUDY    52   7  16 NW5       30.24S
ALBUQUERQUE    CLOUDY    54  18  24 N8        30.32R
CANNON AFB     CLOUDY    48  19  31 SE5       30.19S
CLOVIS         CLOUDY    46  18  31 SE3       30.21R
HOLLOMAN AFB   CLOUDY    50  11  20 NE7       30.23R
ROSWELL        CLEAR     42  19  39 SW9       30.18S WCI  37
RUIDOSO          N/A     50   0  12 NW5       30.35R
SANTA FE       CLOUDY    44  18  35 N3        30.32R
TRUTH OR CONSE CLEAR     54   9  16 CALM      30.26S
TUCUMCARI      CLEAR     43  13  29 CALM      30.16R
$$

USA.gov is the U.S. government's official web portal to all federal, state and local government web resources and services.